Weather History for Teesside, United Kingdom

Change the Weather History Date:

Wednesday, November 30, 2011

  Actual Average Record
Temperature  
Mean Temperature 46 °F -  
Max Temperature 50 °F 43 °F 60 °F (2001)
Min Temperature 41 °F 33 °F 23 °F (2008)
Degree Days  
Heating Degree Days 20    
Moisture  
Dew Point 40 °F    
Average Humidity 78    
Maximum Humidity 87    
Minimum Humidity 71    
Precipitation  
Precipitation 0.00 in - - ()
Sea Level Pressure  
Sea Level Pressure 29.87 in    
Wind  
Wind Speed 15 mph ()    
Max Wind Speed 24 mph    
Max Gust Speed -    
Visibility 6.2 miles    
Events      
Averages and records for this station are not official NWS values.
T = Trace of Precipitation, MM = Missing Value Source: Averaged Metar Reports

Daily Weather History Graph

Daily Weather History Graph

Search for Another Location

Airport:

Trip Planner

Search our weather history database for the weather conditions in past years. The results will help you decide how hot, cold, wet, or windy it might be!

Date:

Astronomy

Nov. 30, 2011 Rise Set
Actual Time 8:01 AM GMT 3:46 PM GMT
Civil Twilight 7:18 AM GMT 4:29 PM GMT
Nautical Twilight 6:33 AM GMT 5:14 PM GMT
Astronomical Twilight 5:50 AM GMT 5:57 PM GMT
Moon 11:46 AM GMT (11/30) 9:58 PM GMT (11/30)
Length of Visible Light 9h 10m
Length of Day
7h 44m
Waxing Crescent, 31% of the Moon is Illuminated
Nov 30
Waxing Crescent
Dec 2
First Quarter
Dec 10
Full
Dec 18
Last Quarter
Dec 24
New

Hourly Weather History & Observations

Time (GMT) Temp. Windchill Dew Point Humidity Pressure Visibility Wind Dir Wind Speed Gust Speed Precip Events Conditions
5:50 AM 41.0 °F 34.7 °F 35.6 °F 81% 29.92 in 6.2 mi South 10.4 mph - N/A   Scattered Clouds
6:20 AM 42.8 °F 35.1 °F 37.4 °F 81% 29.92 in 6.2 mi SSW 16.1 mph - N/A   Scattered Clouds
6:50 AM 42.8 °F 35.4 °F 37.4 °F 81% 29.92 in 6.2 mi South 15.0 mph - N/A   Partly Cloudy
7:20 AM 42.8 °F 35.4 °F 37.4 °F 81% 29.92 in 6.2 mi South 15.0 mph - N/A   Scattered Clouds
7:50 AM 41.0 °F 32.8 °F 37.4 °F 87% 29.95 in 6.2 mi South 16.1 mph - N/A   Partly Cloudy
8:20 AM 42.8 °F 34.8 °F 35.6 °F 76% 29.95 in 6.2 mi South 17.3 mph - N/A   Partly Cloudy
8:50 AM 42.8 °F 34.5 °F 35.6 °F 76% 29.95 in 6.2 mi South 18.4 mph - N/A   Partly Cloudy
9:20 AM 41.0 °F 32.8 °F 37.4 °F 87% 29.95 in 6.2 mi South 16.1 mph - N/A   Partly Cloudy
9:50 AM 42.8 °F 34.8 °F 37.4 °F 81% 29.95 in 6.2 mi South 17.3 mph - N/A   Partly Cloudy
10:20 AM 44.6 °F 36.6 °F 39.2 °F 81% 29.95 in 6.2 mi South 19.6 mph - N/A   Partly Cloudy
10:50 AM 44.6 °F 38.1 °F 39.2 °F 81% 29.98 in 6.2 mi South 13.8 mph - N/A   Partly Cloudy
11:20 AM 44.6 °F 36.9 °F 39.2 °F 81% 29.95 in 6.2 mi South 18.4 mph - N/A   Partly Cloudy
11:50 AM 46.4 °F 39.2 °F 41.0 °F 81% 29.95 in 6.2 mi South 18.4 mph - N/A   Scattered Clouds
12:20 PM 48.2 °F - 41.0 °F 76% 29.95 in 6.2 mi South 18.4 mph - N/A   Partly Cloudy
12:50 PM 48.2 °F - 41.0 °F 76% 29.92 in 6.2 mi South 21.9 mph - N/A   Scattered Clouds
1:20 PM 48.2 °F - 41.0 °F 76% 29.92 in 6.2 mi South 19.6 mph - N/A   Scattered Clouds
1:50 PM 48.2 °F - 41.0 °F 76% 29.92 in 6.2 mi South 19.6 mph - N/A   Mostly Cloudy
2:20 PM 48.2 °F - 41.0 °F 76% 29.89 in 6.2 mi South 17.3 mph - N/A   Partly Cloudy
2:50 PM 50.0 °F - 41.0 °F 71% 29.89 in 6.2 mi South 16.1 mph - N/A   Partly Cloudy
3:20 PM 48.2 °F - 41.0 °F 76% 29.89 in 6.2 mi South 12.7 mph - N/A   Partly Cloudy
3:50 PM 48.2 °F - 41.0 °F 76% 29.86 in 6.2 mi South 17.3 mph - N/A   Partly Cloudy
4:20 PM 48.2 °F - 41.0 °F 76% 29.83 in 6.2 mi South 23.0 mph - N/A   Partly Cloudy
4:50 PM 48.2 °F - 41.0 °F 76% 29.83 in 6.2 mi South 15.0 mph - N/A   Scattered Clouds
5:20 PM 48.2 °F - 41.0 °F 76% 29.80 in 6.2 mi South 19.6 mph - N/A   Scattered Clouds
5:50 PM 48.2 °F - 41.0 °F 76% 29.77 in 6.2 mi South 20.7 mph - N/A   Scattered Clouds
6:20 PM 48.2 °F - 42.8 °F 82% 29.77 in 6.2 mi South 24.2 mph - N/A   Scattered Clouds
6:50 PM 48.2 °F - 42.8 °F 82% 29.74 in 6.2 mi South 24.2 mph - N/A   Partly Cloudy
7:20 PM 48.2 °F - 41.0 °F 76% 29.71 in 6.2 mi South 21.9 mph - N/A   Partly Cloudy
7:50 PM 48.2 °F - 41.0 °F 76% 29.71 in 6.2 mi South 21.9 mph - N/A   Partly Cloudy
8:20 PM 48.2 °F - 41.0 °F 76% 29.71 in 6.2 mi South 15.0 mph - N/A   Scattered Clouds
8:50 PM 48.2 °F - 41.0 °F 76% 29.68 in 6.2 mi South 19.6 mph - N/A   Scattered Clouds
9:20 PM 48.2 °F - 41.0 °F 76% 29.65 in 6.2 mi South 20.7 mph - N/A   Scattered Clouds